Home > Time Zones > World Clock > Weather > Iran > Tehran > Past weeks

Flag for Iran Weather past 2 weeks in Tehran, Iran

Now
39 °F

Clear.


Feels Like: 39 °F
Forecast: 25 / 54 °F
Wind: No wind

Location: Tehran-Mehrabad

Current Time: Jan 25, 2015 at 10:29:17 PM

Latest Report: Jan 25, 2015 at 10:00 PM


Visibility: 10 mi

Pressure: 30.24 "Hg

Humidity: 48%

Dew point: 21 °F

Location of TehranLocation

Historic Weather in Tehran — Graph

°F

Tehran temperature yesterday

Maximum temperature yesterday: 46 °F (at 3:30 PM)
Minimum temperature yesterday: 37 °F (at 8:30 AM)
Average temperature yesterday: 41 °F

Past Weeks' High & Low Weather Summary

 TemperatureHumidityPressure
High57 °F (Jan 16, 3:00 PM)75% (Jan 18, 8:00 AM)30.39 "Hg (Jan 18, 8:00 AM)
Low30 °F (Jan 12, 6:30 AM)19% (Jan 13, 4:00 PM)29.95 "Hg (Jan 10, 8:30 PM)
Average42 °F41%30.17 "Hg
* Reported Jan 10 8:30 PM — Jan 25 9:00 PM, Tehran, Weather by CustomWeather, © 2014

Note: Actual official high and low records may vary slightly from our data, if they occured in-between our weather recording intervals... More about our weather records

Advertising

Tehran weather history for previous 24 hours

 ConditionsComfort  
Time TempWeatherWind HumidityBarometerVisibility
9:00 PM
Jan 25
41 °FPassing clouds.No wind45%30.24 "HgN/A
8:30 PM43 °FPassing clouds.No wind42%30.24 "HgN/A
8:00 PM43 °FPassing clouds.5 mph42%30.24 "HgN/A
7:30 PM43 °FPassing clouds.5 mph42%30.24 "HgN/A
7:00 PM45 °FPassing clouds.5 mph39%30.24 "HgN/A
6:30 PM45 °FPassing clouds.7 mph39%30.24 "HgN/A
6:00 PM45 °FPassing clouds.7 mph39%30.21 "Hg5 mi
5:30 PM46 °FScattered clouds.5 mph34%30.21 "Hg5 mi
5:00 PM48 °FPartly sunny.7 mph34%30.21 "Hg5 mi
4:30 PM48 °FPartly sunny.7 mph34%30.21 "Hg5 mi
4:00 PM48 °FScattered clouds.5 mph34%30.21 "HgN/A
3:30 PM48 °FScattered clouds.5 mph34%30.21 "HgN/A
3:00 PM48 °FScattered clouds.7 mph34%30.21 "HgN/A
2:30 PM48 °FPartly sunny.5 mph34%30.21 "HgN/A
2:00 PM48 °FScattered clouds.5 mph34%30.24 "HgN/A
1:30 PM46 °FScattered clouds.7 mph37%30.24 "HgN/A
1:00 PM46 °FPassing clouds.5 mph37%30.24 "HgN/A
12:30 PM46 °FPassing clouds.7 mph37%30.27 "HgN/A
12:00 PM46 °FPassing clouds.7 mph37%30.30 "HgN/A
11:30 AM45 °FPassing clouds.7 mph39%30.30 "HgN/A
11:00 AM45 °FPassing clouds.No wind39%30.30 "HgN/A
10:30 AM43 °FPassing clouds.5 mph42%30.33 "HgN/A
10:00 AM43 °FPassing clouds.5 mph42%30.33 "HgN/A
9:30 AM41 °FPassing clouds.5 mph45%30.33 "HgN/A
9:00 AM41 °FPassing clouds.No wind49%30.33 "Hg5 mi
8:30 AM39 °FScattered clouds.5 mph48%30.33 "Hg5 mi
8:00 AM37 °FPassing clouds.5 mph52%30.30 "HgN/A
7:30 AM36 °FPassing clouds.5 mph56%30.30 "HgN/A
7:00 AM34 °FPassing clouds.5 mph60%30.30 "HgN/A
6:30 AM34 °FPassing clouds.7 mph65%30.27 "HgN/A
6:00 AM34 °FPassing clouds.5 mph65%30.27 "HgN/A
5:30 AM36 °FPassing clouds.5 mph60%30.27 "HgN/A
5:00 AM36 °FPassing clouds.5 mph56%30.27 "HgN/A
4:30 AM36 °FPassing clouds.5 mph56%30.27 "HgN/A
4:00 AM36 °FPassing clouds.5 mph56%30.30 "HgN/A
3:30 AM36 °FPassing clouds.5 mph56%30.30 "HgN/A
2:30 AM37 °FPassing clouds.5 mph56%30.30 "HgN/A
2:00 AM37 °FPassing clouds.5 mph56%30.30 "HgN/A
1:30 AM37 °FPassing clouds.7 mph56%30.30 "HgN/A
1:00 AM37 °FPassing clouds.5 mph56%30.30 "HgN/A
12:30 AM37 °FPassing clouds.5 mph56%30.30 "HgN/A
12:00 AM39 °FPassing clouds.5 mph52%30.30 "HgN/A
11:30 PM
Jan 24
39 °FPassing clouds.5 mph52%30.30 "HgN/A
11:00 PM39 °FPassing clouds.5 mph52%30.30 "HgN/A
10:30 PM37 °FPassing clouds.5 mph56%30.30 "HgN/A
10:00 PM39 °FPassing clouds.5 mph52%30.30 "HgN/A
Weather by CustomWeather, © 2014

See weather overviewHow to use our weather pages